Annapolis Naval Academy, MD

6:06 AM EDT on April 24, 2018 (GMT -0400)
Annapolis Naval Academy

Weather History for KNAK - March, 2013

Change the Weather History Date:

Wednesday, March 13, 2013

  Actual Average (KBWI) Record (KBWI)
Temperature  
Mean Temperature 42 °F -  
Max Temperature 50 °F 53 °F 85 °F (1990)
Min Temperature 35 °F 34 °F 12 °F (1888)
Degree Days  
Heating Degree Days 22    
Moisture  
Dew Point 27 °F    
Average Humidity 57    
Maximum Humidity 89    
Minimum Humidity 29    
Precipitation  
Precipitation 0.00 in - - ()
Sea Level Pressure  
Sea Level Pressure 29.96 in    
Wind  
Wind Speed 6 mph (WNW)    
Max Wind Speed 16 mph    
Max Gust Speed 25 mph    
Visibility 10 miles    
Events Rain    
Averages and records for this station are not official NWS values.
T = Trace of Precipitation, MM = Missing Value Source: NWS Daily Summary

Daily Weather History Graph

Daily Weather History Graph

Search for Another Location

Airport or City:

Astronomy

Mar. 13, 2013 Rise Set
Actual Time 7:19 AM EDT 7:11 PM EDT
Civil Twilight 6:53 AM EDT 7:37 PM EDT
Nautical Twilight 6:22 AM EDT 8:08 PM EDT
Astronomical Twilight 5:51 AM EDT 8:40 PM EDT
Moon 7:59 AM EDT (3/13) 9:23 PM EDT (3/13)
Length of Visible Light 12h 44m
Length of Day
11h 51m
Waxing Crescent, 4% of the Moon is Illuminated
Mar 13
Waxing Crescent
Mar 19
First Quarter
Mar 27
Full
Apr 3
Last Quarter
Apr 10
New

Hourly Weather History & Observations

Time (EDT) Temp. Windchill Dew Point Humidity Pressure Visibility Wind Dir Wind Speed Gust Speed Precip Events Conditions
12:54 AM 43.0 °F 37.7 °F 30.9 °F 62% 29.96 in 10.0 mi NW 9.2 mph - N/A   Clear
1:54 AM 42.1 °F 39.2 °F 30.9 °F 65% 29.96 in 10.0 mi WNW 4.6 mph - N/A   Clear
2:54 AM 39.9 °F - 30.0 °F 68% 29.96 in 10.0 mi Calm Calm - N/A   Partly Cloudy
3:54 AM 37.9 °F - 30.9 °F 76% 29.96 in 10.0 mi Calm Calm - N/A   Partly Cloudy
4:54 AM 37.0 °F - 30.9 °F 79% 29.96 in 10.0 mi Calm Calm - N/A   Clear
5:54 AM 36.0 °F - 32.0 °F 86% 29.97 in 9.0 mi Calm Calm - N/A   Clear
6:54 AM 36.0 °F - 33.1 °F 89% 29.97 in 9.0 mi Calm Calm - N/A   Clear
7:54 AM 35.1 °F - 32.0 °F 89% 29.98 in 7.0 mi Calm Calm - N/A   Clear
8:54 AM 41.0 °F 39.0 °F 30.0 °F 65% 29.99 in 10.0 mi West 3.5 mph - N/A   Clear
9:54 AM 44.1 °F 41.5 °F 26.1 °F 49% 29.99 in 10.0 mi WNW 4.6 mph - N/A   Mostly Cloudy
10:54 AM 46.9 °F - 28.9 °F 50% 29.97 in 10.0 mi Variable 3.5 mph - N/A   Clear
11:54 AM 46.9 °F - 24.1 °F 41% 29.95 in 10.0 mi WSW 10.4 mph 18.4 mph N/A   Overcast
12:54 PM 48.9 °F - 26.1 °F 41% 29.93 in 10.0 mi WSW 10.4 mph - N/A   Overcast
1:54 PM 46.9 °F - 28.0 °F 48% 29.91 in 10.0 mi WSW 8.1 mph - 0.00 in Rain Light Rain
2:54 PM 45.0 °F 41.2 °F 33.1 °F 63% 29.91 in 10.0 mi NNW 6.9 mph - 0.00 in   Scattered Clouds
3:54 PM 50.0 °F - 19.9 °F 31% 29.90 in 10.0 mi West 12.7 mph 25.3 mph N/A   Mostly Cloudy
4:54 PM 48.0 °F - 17.1 °F 29% 29.91 in 10.0 mi WNW 10.4 mph 23.0 mph N/A   Clear
5:54 PM 48.9 °F - 19.9 °F 32% 29.91 in 10.0 mi WNW 13.8 mph 20.7 mph N/A   Partly Cloudy
6:54 PM 46.0 °F 39.3 °F 21.0 °F 37% 29.94 in 10.0 mi WNW 16.1 mph 24.2 mph N/A   Partly Cloudy
7:54 PM 43.0 °F 37.7 °F 26.1 °F 51% 29.98 in 10.0 mi WNW 9.2 mph 20.7 mph N/A   Scattered Clouds
10:54 PM 37.9 °F 30.9 °F 19.9 °F 48% 30.04 in 10.0 mi WNW 10.4 mph - N/A   Unknown
11:54 PM 37.0 °F 29.3 °F 19.0 °F 48% 30.06 in 10.0 mi West 11.5 mph 20.7 mph N/A   Clear